Time,TemperatureF,DewpointF,PressureIn,WindDirection,WindDirectionDegrees,WindSpeedMPH,WindSpeedGustMPH,Humidity,HourlyPrecipIn,Conditions,Clouds,dailyrainin,SoftwareType,DateUTC
2013-07-07 00:08:00,68.7,68.4,29.94,SSE,157,0.0,-999.0,99,-99.99,,,0.00,Acu-Link.com,2013-07-07 04:08:00,
2013-07-07 00:23:00,68.5,68.2,29.94,SSE,157,0.0,-999.0,99,-99.99,,,0.00,Acu-Link.com,2013-07-07 04:23:00,
2013-07-07 00:38:00,68.5,68.2,29.93,SSE,157,0.0,-999.0,99,-99.99,,,0.00,Acu-Link.com,2013-07-07 04:38:00,
2013-07-07 00:53:00,68.7,68.4,29.94,SSE,157,0.0,-999.0,99,-99.99,,,0.00,Acu-Link.com,2013-07-07 04:53:00,
2013-07-07 01:08:00,68.7,68.4,29.94,SSE,157,0.0,-999.0,99,-99.99,,,0.00,Acu-Link.com,2013-07-07 05:08:00,
2013-07-07 01:23:00,68.7,68.4,29.94,South,180,0.0,-999.0,99,-99.99,,,0.00,Acu-Link.com,2013-07-07 05:23:00,
2013-07-07 01:38:00,68.7,68.4,29.93,SSE,157,0.0,-999.0,99,-99.99,,,0.02,Acu-Link.com,2013-07-07 05:38:00,
2013-07-07 01:54:00,68.9,68.6,29.93,South,180,0.0,-999.0,99,-99.99,,,0.02,Acu-Link.com,2013-07-07 05:54:00,
2013-07-07 02:09:00,68.9,68.6,29.93,South,180,0.0,-999.0,99,-99.99,,,0.03,Acu-Link.com,2013-07-07 06:09:00,
2013-07-07 02:24:00,68.9,68.6,29.93,SSE,157,0.0,-999.0,99,-99.99,,,0.03,Acu-Link.com,2013-07-07 06:24:00,
2013-07-07 02:39:00,68.9,68.6,29.92,SSE,157,0.0,-999.0,99,-99.99,,,0.05,Acu-Link.com,2013-07-07 06:39:00,
2013-07-07 02:54:00,68.9,68.6,29.92,South,180,0.0,-999.0,99,-99.99,,,0.11,Acu-Link.com,2013-07-07 06:54:00,
2013-07-07 03:09:00,68.9,68.6,29.91,NW,315,0.0,-999.0,99,-99.99,,,0.24,Acu-Link.com,2013-07-07 07:09:00,
2013-07-07 03:24:00,68.9,68.6,29.91,NW,315,0.0,-999.0,99,-99.99,,,0.41,Acu-Link.com,2013-07-07 07:24:00,
2013-07-07 03:39:00,68.9,68.6,29.91,NNW,337,0.0,-999.0,99,-99.99,,,0.47,Acu-Link.com,2013-07-07 07:39:00,
2013-07-07 03:54:00,68.7,68.4,29.91,SSE,157,0.0,-999.0,99,-99.99,,,0.53,Acu-Link.com,2013-07-07 07:54:00,
2013-07-07 04:10:00,68.7,68.4,29.91,SSW,202,0.0,-999.0,99,-99.99,,,0.53,Acu-Link.com,2013-07-07 08:10:00,
2013-07-07 04:25:00,68.7,68.4,29.91,SW,225,0.0,-999.0,99,-99.99,,,0.55,Acu-Link.com,2013-07-07 08:25:00,
2013-07-07 04:40:00,68.9,68.6,29.91,SSE,157,0.0,-999.0,99,-99.99,,,0.56,Acu-Link.com,2013-07-07 08:40:00,
2013-07-07 04:55:00,68.9,68.6,29.91,SW,225,0.0,-999.0,99,-99.99,,,0.67,Acu-Link.com,2013-07-07 08:55:00,
2013-07-07 05:11:00,68.9,68.6,29.92,SW,225,0.0,-999.0,99,-99.99,,,0.68,Acu-Link.com,2013-07-07 09:11:00,
2013-07-07 05:26:00,68.9,68.6,29.92,SW,225,0.0,-999.0,99,-99.99,,,0.69,Acu-Link.com,2013-07-07 09:26:00,
2013-07-07 05:41:00,68.9,68.6,29.92,SW,225,0.0,-999.0,99,-99.99,,,0.69,Acu-Link.com,2013-07-07 09:41:00,
2013-07-07 05:56:00,68.9,68.6,29.92,SW,225,0.0,-999.0,99,-99.99,,,0.69,Acu-Link.com,2013-07-07 09:56:00,
2013-07-07 06:11:00,68.9,68.6,29.92,SW,225,0.0,-999.0,99,-99.99,,,0.69,Acu-Link.com,2013-07-07 10:11:00,
2013-07-07 06:26:00,68.9,68.6,29.92,SW,225,0.0,-999.0,99,-99.99,,,0.69,Acu-Link.com,2013-07-07 10:26:00,
2013-07-07 06:41:00,69.1,68.8,29.93,SW,225,0.0,-999.0,99,-99.99,,,0.69,Acu-Link.com,2013-07-07 10:41:00,
2013-07-07 06:56:00,69.1,68.8,29.93,SW,225,0.0,-999.0,99,-99.99,,,0.69,Acu-Link.com,2013-07-07 10:56:00,
2013-07-07 07:11:00,69.3,69.0,29.93,SW,225,0.0,-999.0,99,-99.99,,,0.69,Acu-Link.com,2013-07-07 11:11:00,
2013-07-07 07:27:00,69.3,69.0,29.93,SW,225,0.0,-999.0,99,-99.99,,,0.69,Acu-Link.com,2013-07-07 11:27:00,
2013-07-07 07:42:00,69.8,69.5,29.94,SW,225,0.0,-999.0,99,-99.99,,,0.69,Acu-Link.com,2013-07-07 11:42:00,
2013-07-07 07:57:00,70.0,69.7,29.95,SW,225,0.0,-999.0,99,-99.99,,,0.69,Acu-Link.com,2013-07-07 11:57:00,
2013-07-07 08:12:00,70.2,69.9,29.96,SW,225,0.0,-999.0,99,-99.99,,,0.69,Acu-Link.com,2013-07-07 12:12:00,
2013-07-07 08:27:00,70.9,70.6,29.96,SW,225,0.0,-999.0,99,-99.99,,,0.69,Acu-Link.com,2013-07-07 12:27:00,
2013-07-07 08:42:00,71.6,71.3,29.96,South,180,0.0,-999.0,99,-99.99,,,0.69,Acu-Link.com,2013-07-07 12:42:00,
2013-07-07 08:57:00,71.6,71.3,29.97,SW,225,0.0,-999.0,99,-99.99,,,0.73,Acu-Link.com,2013-07-07 12:57:00,
2013-07-07 09:12:00,71.4,71.1,29.97,NNW,337,1.1,-999.0,99,-99.99,,,0.80,Acu-Link.com,2013-07-07 13:12:00,
2013-07-07 09:27:00,71.8,71.5,29.97,NNW,337,0.0,-999.0,99,-99.99,,,0.83,Acu-Link.com,2013-07-07 13:27:00,
2013-07-07 09:43:00,72.1,71.8,29.97,NNW,337,0.0,-999.0,99,-99.99,,,0.85,Acu-Link.com,2013-07-07 13:43:00,
2013-07-07 09:58:00,72.7,72.4,29.98,SSW,202,0.0,-999.0,99,-99.99,,,0.87,Acu-Link.com,2013-07-07 13:58:00,
2013-07-07 10:13:00,73.2,72.9,29.97,NNW,337,0.0,-999.0,99,-99.99,,,0.87,Acu-Link.com,2013-07-07 14:13:00,
2013-07-07 10:28:00,73.6,73.3,29.97,East,90,0.0,-999.0,99,-99.99,,,0.87,Acu-Link.com,2013-07-07 14:28:00,
2013-07-07 10:43:00,73.2,72.9,29.97,East,90,0.0,-999.0,99,-99.99,,,0.88,Acu-Link.com,2013-07-07 14:43:00,
2013-07-07 10:58:00,73.2,72.9,29.98,SSE,157,0.0,-999.0,99,-99.99,,,0.88,Acu-Link.com,2013-07-07 14:58:00,
2013-07-07 11:13:00,73.6,73.3,29.97,SSE,157,0.0,-999.0,99,-99.99,,,0.89,Acu-Link.com,2013-07-07 15:13:00,
2013-07-07 11:28:00,73.8,73.5,29.97,SSE,157,0.0,-999.0,99,-99.99,,,0.90,Acu-Link.com,2013-07-07 15:28:00,
2013-07-07 11:43:00,73.9,73.6,29.97,NNW,337,0.0,-999.0,99,-99.99,,,0.91,Acu-Link.com,2013-07-07 15:43:00,
2013-07-07 11:59:00,74.3,74.0,29.98,NNW,337,0.0,-999.0,99,-99.99,,,0.95,Acu-Link.com,2013-07-07 15:59:00,
2013-07-07 12:14:00,75.4,74.5,29.97,NNW,337,1.1,-999.0,97,-99.99,,,0.97,Acu-Link.com,2013-07-07 16:14:00,
2013-07-07 12:29:00,75.2,74.9,29.97,NNW,337,0.0,-999.0,99,-99.99,,,0.97,Acu-Link.com,2013-07-07 16:29:00,
2013-07-07 12:44:00,77.9,76.0,29.97,SSE,157,0.0,-999.0,94,-99.99,,,0.97,Acu-Link.com,2013-07-07 16:44:00,
2013-07-07 12:59:00,78.3,75.8,29.97,SSE,157,1.7,-999.0,92,-99.99,,,0.97,Acu-Link.com,2013-07-07 16:59:00,
2013-07-07 13:14:00,78.4,75.5,29.95,SE,135,1.7,-999.0,91,-99.99,,,0.97,Acu-Link.com,2013-07-07 17:14:00,
2013-07-07 13:29:00,77.5,74.0,29.95,East,90,1.1,-999.0,89,-99.99,,,0.97,Acu-Link.com,2013-07-07 17:29:00,
2013-07-07 13:44:00,79.9,74.6,29.94,SSE,157,1.7,-999.0,84,-99.99,,,0.97,Acu-Link.com,2013-07-07 17:44:00,
2013-07-07 13:59:00,80.6,74.9,29.94,West,270,2.7,-999.0,83,-99.99,,,0.97,Acu-Link.com,2013-07-07 17:59:00,
2013-07-07 14:15:00,78.8,74.9,29.94,South,180,1.7,-999.0,88,-99.99,,,0.97,Acu-Link.com,2013-07-07 18:15:00,
2013-07-07 14:30:00,78.1,74.6,29.94,NNE,22,2.2,-999.0,89,-99.99,,,0.97,Acu-Link.com,2013-07-07 18:30:00,
2013-07-07 14:45:00,80.2,74.9,29.94,WNW,292,2.2,-999.0,84,-99.99,,,0.97,Acu-Link.com,2013-07-07 18:45:00,
2013-07-07 15:00:00,82.8,76.7,29.93,ENE,67,1.7,-999.0,82,-99.99,,,0.97,Acu-Link.com,2013-07-07 19:00:00,
2013-07-07 15:15:00,78.4,75.9,29.93,ENE,67,0.0,-999.0,92,-99.99,,,0.98,Acu-Link.com,2013-07-07 19:15:00,
2013-07-07 15:30:00,78.3,76.1,29.92,East,90,0.0,-999.0,93,-99.99,,,0.98,Acu-Link.com,2013-07-07 19:30:00,
2013-07-07 15:45:00,78.1,73.9,29.93,South,180,2.7,-999.0,87,-99.99,,,0.98,Acu-Link.com,2013-07-07 19:45:00,
2013-07-07 16:01:00,76.3,74.1,29.92,SSE,157,1.7,-999.0,93,-99.99,,,1.00,Acu-Link.com,2013-07-07 20:01:00,
2013-07-07 16:16:00,76.6,74.1,29.91,NNW,337,0.0,-999.0,92,-99.99,,,1.00,Acu-Link.com,2013-07-07 20:16:00,
2013-07-07 16:31:00,79.3,76.8,29.91,West,270,3.7,-999.0,92,-99.99,,,1.00,Acu-Link.com,2013-07-07 20:31:00,
2013-07-07 16:46:00,79.0,76.1,29.91,NNW,337,1.7,-999.0,91,-99.99,,,1.00,Acu-Link.com,2013-07-07 20:46:00,
2013-07-07 17:01:00,78.6,75.1,29.91,NW,315,1.7,-999.0,89,-99.99,,,1.00,Acu-Link.com,2013-07-07 21:01:00,
2013-07-07 17:16:00,80.8,75.5,29.91,NNW,337,0.0,-999.0,84,-99.99,,,1.00,Acu-Link.com,2013-07-07 21:16:00,
2013-07-07 17:31:00,78.6,75.4,29.91,NNW,337,0.0,-999.0,90,-99.99,,,1.00,Acu-Link.com,2013-07-07 21:31:00,
2013-07-07 17:46:00,77.5,75.3,29.91,ESE,112,0.0,-999.0,93,-99.99,,,1.07,Acu-Link.com,2013-07-07 21:46:00,
2013-07-07 18:01:00,77.0,75.1,29.90,ESE,112,0.0,-999.0,94,-99.99,,,1.07,Acu-Link.com,2013-07-07 22:01:00,
2013-07-07 18:17:00,76.6,75.1,29.91,East,90,0.0,-999.0,95,-99.99,,,1.07,Acu-Link.com,2013-07-07 22:17:00,
2013-07-07 18:32:00,76.8,75.3,29.91,NNE,22,0.0,-999.0,95,-99.99,,,1.08,Acu-Link.com,2013-07-07 22:32:00,
2013-07-07 18:47:00,77.0,75.5,29.91,NNE,22,0.0,-999.0,95,-99.99,,,1.10,Acu-Link.com,2013-07-07 22:47:00,
2013-07-07 19:02:00,76.8,75.6,29.91,ESE,112,0.0,-999.0,96,-99.99,,,1.11,Acu-Link.com,2013-07-07 23:02:00,
2013-07-07 19:17:00,76.8,75.6,29.91,NNW,337,0.0,-999.0,96,-99.99,,,1.11,Acu-Link.com,2013-07-07 23:17:00,
2013-07-07 19:32:00,77.2,75.7,29.91,NNW,337,0.0,-999.0,95,-99.99,,,1.11,Acu-Link.com,2013-07-07 23:32:00,
2013-07-07 19:47:00,77.0,75.8,29.92,North,0,0.0,-999.0,96,-99.99,,,1.11,Acu-Link.com,2013-07-07 23:47:00,
2013-07-07 20:02:00,76.5,75.3,29.93,NNW,337,0.0,-999.0,96,-99.99,,,1.11,Acu-Link.com,2013-07-08 00:02:00,
2013-07-07 20:17:00,76.1,75.2,29.93,East,90,0.0,-999.0,97,-99.99,,,1.11,Acu-Link.com,2013-07-08 00:17:00,
2013-07-07 20:33:00,75.7,74.8,29.92,NNW,337,0.0,-999.0,97,-99.99,,,1.11,Acu-Link.com,2013-07-08 00:33:00,
2013-07-07 20:48:00,75.2,74.3,29.93,North,0,0.0,-999.0,97,-99.99,,,1.11,Acu-Link.com,2013-07-08 00:48:00,
2013-07-07 21:03:00,74.5,73.9,29.93,NNE,22,0.0,-999.0,98,-99.99,,,1.11,Acu-Link.com,2013-07-08 01:03:00,
2013-07-07 21:18:00,74.1,73.5,29.95,SSW,202,0.0,-999.0,98,-99.99,,,1.11,Acu-Link.com,2013-07-08 01:18:00,
2013-07-07 21:33:00,73.4,72.8,29.95,SE,135,0.0,-999.0,98,-99.99,,,1.11,Acu-Link.com,2013-07-08 01:33:00,
2013-07-07 21:48:00,73.0,72.4,29.97,East,90,0.0,-999.0,98,-99.99,,,1.11,Acu-Link.com,2013-07-08 01:48:00,
2013-07-07 22:03:00,72.7,72.4,29.97,NNE,22,0.0,-999.0,99,-99.99,,,1.11,Acu-Link.com,2013-07-08 02:03:00,
2013-07-07 22:18:00,72.7,72.4,29.98,East,90,0.0,-999.0,99,-99.99,,,1.11,Acu-Link.com,2013-07-08 02:18:00,
2013-07-07 22:33:00,72.5,72.2,29.98,SE,135,0.0,-999.0,99,-99.99,,,1.11,Acu-Link.com,2013-07-08 02:33:00,
2013-07-07 22:49:00,72.3,72.0,29.98,SE,135,0.0,-999.0,99,-99.99,,,1.11,Acu-Link.com,2013-07-08 02:49:00,
2013-07-07 23:04:00,72.1,71.8,29.99,SE,135,0.0,-999.0,99,-99.99,,,1.12,Acu-Link.com,2013-07-08 03:04:00,
2013-07-07 23:19:00,72.1,71.8,29.99,SSE,157,0.0,-999.0,99,-99.99,,,1.16,Acu-Link.com,2013-07-08 03:19:00,
2013-07-07 23:34:00,72.0,71.7,29.98,ESE,112,0.0,-999.0,99,-99.99,,,1.35,Acu-Link.com,2013-07-08 03:34:00,
2013-07-07 23:49:00,71.8,71.5,29.98,ENE,67,0.0,-999.0,99,-99.99,,,1.37,Acu-Link.com,2013-07-08 03:49:00,